Orbital Elements at Epoch 2459000.5 (2020-May-31.0) TDB
Reference: JPL 20 (heliocentric ecliptic J2000)
Element | Value | Uncertainty (1-sigma) | Units |
e | .2473725112013805 | 4.3536e-08 | |
a | 2.663689944898867 | 1.1046e-08 | au |
q | 2.004766274167368 | 1.2009e-07 | au |
i | 12.39716859543107 | 3.8996e-06 | deg |
node | 207.9044073344776 | 1.7291e-05 | deg |
peri | 192.0247169906036 | 1.8944e-05 | deg |
M | 287.0268281578134 | 8.8856e-06 | deg |
tp | 2459322.373080679175 (2021-Apr-17.87308068) | 4.0354e-05 | TDB |
period | 1587.902870593256 4.35 | 9.877e-06 2.704e-08 | d yr |
n | .2267141187706906 | 1.4102e-09 | deg/d |
Q | 3.322613615630366 | 1.3778e-08 | au |
|
| | Orbit Determination Parameters
Additional Information
|